Weather History for Concordia, KS

Change the Weather History Date:

Tuesday, February 12, 2013

  Actual Average Record
Temperature  
Mean Temperature 36 °F 32 °F  
Max Temperature 49 °F 42 °F 71 °F (1911)
Min Temperature 22 °F 21 °F -25 °F (1899)
Degree Days  
Heating Degree Days 29 33  
Month to date heating degree days 341 413  
Since 1 July heating degree days 3449 3717  
Cooling Degree Days 0 0  
Month to date cooling degree days 0 0  
Year to date cooling degree days 0 0  
Moisture  
Dew Point 19 °F    
Average Humidity 60    
Maximum Humidity 88    
Minimum Humidity 31    
Precipitation  
Precipitation 0.00 in 0.02 in 0.50 in (1894)
Month to date precipitation 0.04 0.31  
Year to date precipitation 0.73 0.89  
Snow  
Snow 0.00 in 0.20 in 5.90 in (1978)
Month to date snowfall 0.0 2.6  
Year to date snowfall 5.2 8.3  
Since 1 July snowfall 13.7 14.8  
Snow Depth 0.00 in    
Sea Level Pressure  
Sea Level Pressure 30.07 in    
Wind  
Wind Speed 6 mph (WSW)    
Max Wind Speed 13 mph    
Max Gust Speed 18 mph    
Visibility 10 miles    
Events      
T = Trace of Precipitation, MM = Missing Value Source: NWS Daily Summary

Daily Weather History Graph

Daily Weather History Graph

Search for Another Location

Airport:

Trip Planner

Search our weather history database for the weather conditions in past years. The results will help you decide how hot, cold, wet, or windy it might be!

Date:

Astronomy

Feb. 12, 2013 Rise Set
Actual Time 7:26 AM CST 6:04 PM CST
Civil Twilight 6:58 AM CST 6:31 PM CST
Nautical Twilight 6:26 AM CST 7:03 PM CST
Astronomical Twilight 5:55 AM CST 7:34 PM CST
Moon 8:24 AM CST (2/12) 9:05 PM CST (2/12)
Length of Visible Light 11h 33m
Length of Day
10h 37m
Waxing Crescent, 7% of the Moon is Illuminated
Feb 12
Waxing Crescent
Feb 17
First Quarter
Feb 25
Full
Mar 4
Last Quarter
Mar 11
New

Hourly Weather History & Observations

Time (CST) Temp. Windchill Dew Point Humidity Pressure Visibility Wind Dir Wind Speed Gust Speed Precip Events Conditions
12:55 AM 25.0 °F 20.7 °F 16.0 °F 69% 30.19 in 10.0 mi South 3.5 mph - N/A   Clear
1:55 AM 24.1 °F - 16.0 °F 71% 30.15 in 10.0 mi Calm Calm - N/A   Clear
2:55 AM 23.0 °F - 17.1 °F 78% 30.15 in 10.0 mi Calm Calm - N/A   Clear
3:55 AM 23.0 °F - 18.0 °F 81% 30.15 in 9.0 mi Calm Calm - N/A   Clear
4:55 AM 26.1 °F 21.9 °F 18.0 °F 71% 30.16 in 10.0 mi WSW 3.5 mph - N/A   Clear
5:55 AM 23.0 °F - 19.0 °F 85% 30.14 in 10.0 mi Calm Calm - N/A   Clear
6:55 AM 24.1 °F - 17.1 °F 75% 30.13 in 10.0 mi Calm Calm - N/A   Clear
7:55 AM 26.1 °F 17.6 °F 17.1 °F 69% 30.13 in 10.0 mi SW 8.1 mph - N/A   Clear
8:55 AM 30.0 °F - 19.0 °F 64% 30.12 in 10.0 mi Calm Calm - N/A   Clear
9:55 AM 36.0 °F 32.1 °F 21.9 °F 57% 30.13 in 10.0 mi SW 4.6 mph - N/A   Clear
10:55 AM 39.0 °F 33.4 °F 19.0 °F 45% 30.13 in 10.0 mi SW 8.1 mph - N/A   Clear
11:55 AM 41.0 °F 35.2 °F 19.9 °F 43% 30.10 in 10.0 mi WSW 9.2 mph - N/A   Clear
12:55 PM 45.0 °F 40.1 °F 19.9 °F 37% 30.06 in 10.0 mi WSW 9.2 mph - N/A   Clear
1:55 PM 46.0 °F 40.6 °F 21.0 °F 37% 30.04 in 10.0 mi WSW 11.5 mph - N/A   Clear
2:55 PM 46.9 °F - 21.0 °F 36% 30.01 in 10.0 mi WNW 10.4 mph - N/A   Clear
3:55 PM 48.0 °F - 21.9 °F 36% 29.99 in 10.0 mi West 10.4 mph - N/A   Clear
4:55 PM 48.0 °F - 19.0 °F 32% 29.97 in 10.0 mi West 12.7 mph - N/A   Clear
5:55 PM 44.1 °F 40.8 °F 19.9 °F 38% 29.98 in 10.0 mi SW 5.8 mph - N/A   Clear
6:55 PM 35.1 °F 27.9 °F 19.0 °F 52% 29.99 in 10.0 mi SSW 9.2 mph - N/A   Clear
7:55 PM 35.1 °F 27.4 °F 23.0 °F 61% 29.98 in 10.0 mi SSW 10.4 mph - N/A   Clear
8:55 PM 34.0 °F 26.6 °F 23.0 °F 64% 29.98 in 10.0 mi SW 9.2 mph - N/A   Clear
9:55 PM 32.0 °F 24.8 °F 19.0 °F 59% 29.99 in 10.0 mi WSW 8.1 mph - N/A   Clear
10:55 PM 30.9 °F 25.2 °F 15.1 °F 52% 29.99 in 10.0 mi West 5.8 mph - N/A   Clear
11:55 PM 28.9 °F 22.8 °F 15.1 °F 56% 29.99 in 10.0 mi West 5.8 mph - N/A   Clear